Погода в Богородском

Россия / Республика Татарстан     55°44′27″N   49°23′01″E
темп.,
°C
ветер,
м/с
пор.,
м/с
влажн.,
%
обл.,
%
осадки,
мм/ч
давл.,
гПа
погр.,
м
23 сентября, чт
чт2300:00+9юв51194100 0.3 1021453
03:00+9вюв5109499 0.3 1021347
06:00+9юв5992100 0.5 1021322
09:00+11вюв61179100 0.6 1022452
12:00+12юв71074100 0.2 1021451
15:00+11юв51183100 1.3 1021539
18:00+9юв61288100 0.1 1021518
21:00+10юв61383100 0.1 1020621
24 сентября, пт
пт2400:00+8юв61492100 2.1 1020809
03:00+8вюв51194100 3.6 1018378
06:00+9юв71590100 0.9 1017635
09:00+10юв71473100 0.9 1016580
12:00+12ююв71364100 0.0 1016857
15:00+11юв61170100 0.4 1015647
18:00+10юв81682100 0.6 1016849
21:00+8юв71390100 1.6 1016541
25 сентября, сб
сб2500:00+8вюв61393100 1.0 1015529
03:00+8вюв71291100 3.6 1009413
06:00+8вюв61188100 0.7 1012429
09:00+8в4883100 2.1 1011449
12:00+10вюв4672100 0.2 1010959
15:00+8вюв4978100 0.7 1010533
18:00+8вюв3783100 0.0 1010226
21:00+8вюв2485100 0.0 1010122
26 сентября, вс
вс2600:00+8всв1188100 0.0 101025
03:00+7св119096 0.0 101011
06:00+7с1187100 0.0 101011
09:00+9с1178100 0.0 1010220
12:00+11с117099 0.0 1011498
15:00+13св136198 0.0 1011856
18:00+10ссв2274100 0.0 101116
21:00+8св3468100 0.0 101275
27 сентября, пн
пн2700:00+9в71378100 0.0 1014549
03:00+8в71385100 0.0 1016707
06:00+6всв81390100 0.8 1019736
09:00+4в8138894 1.8 1021746
12:00+7в81067100 0.0 10231175
15:00+9в7105070 0.0 10251485
18:00+5всв410500 0.0 1027228
21:00+4св513610 0.0 1029331